Dewpoint
38 38 38 39 38 38 38 36 28 35 38 30 33 29 29 25 21 21 20 15 17 17 18 19 18 28 26 25 23 21 24 27 22 20 23 31 35 34 36 31 28 32 33 32
40 39 38 39 38 38 37 33 29 34 39 25 29 31 31 28 25 23 20 17 15 16 16 17 17 27 27 26 23 21 21 29 26 21 24 25 27 34 35 35 35 32 30 32
41 40 39 38 38 39 37 31 26 28 35 33 30 26 25 24 24 23 21 19 19 17 15 17 19 21 27 25 23 22 25 25 26 26 30 33 33 33 34 37 31 29 34 35
42 41 40 38 38 39 37 32 28 27 25 29 31 31 32 29 22 21 20 18 18 18 17 16 16 19 19 25 23 22 26 25 26 25 24 34 33 34 35 35 34 33 31 34
43 41 41 40 39 39 35 30 28 25 24 26 29 28 26 24 24 24 26 22 20 18 17 16 17 26 26 27 28 24 23 22 23 22 21 22 31 31 33 33 37 36 36 35
42 41 41 41 40 39 33 34 33 32 27 25 23 27 25 23 23 23 23 25 30 30 27 30 31 30 30 29 29 26 24 23 23 21 22 21 23 25 31 32 33 30 31 35
42 42 42 42 41 39 34 32 31 28 23 22 22 23 22 22 22 23 24 26 31 32 35 32 31 29 29 28 28 27 24 24 23 19 19 17 24 25 25 22 29 30 35 34
43 42 43 43 42 40 36 34 33 29 24 23 21 19 18 19 22 24 28 30 34 39 33 29 24 24 25 25 26 26 26 25 22 20 20 18 16 17 18 19 30 36 35 37
43 43 43 43 43 42 38 35 35 33 27 24 24 20 22 23 23 25 28 35 39 38 33 27 21 19 21 19 23 25 26 27 25 23 20 15 17 21 25 25 28 35 36 36
44 44 44 43 43 43 41 36 35 34 28 29 27 25 25 31 26 31 28 31 35 37 30 25 23 21 21 20 23 24 24 25 24 24 24 24 23 26 27 21 29 34 34 34
45 45 44 44 43 44 42 38 35 34 30 28 29 29 28 29 32 29 32 30 34 31 26 27 24 22 23 23 25 29 24 24 26 26 22 19 31 28 28 36 36 34 34 35
45 45 45 44 44 44 43 37 37 37 32 29 31 30 30 29 31 35 35 34 33 34 29 28 28 25 25 29 25 33 27 25 25 25 24 38 39 38 39 36 35 35 35 35
44 44 44 45 45 45 44 39 38 37 35 31 30 26 29 30 32 38 33 36 37 37 39 35 33 27 28 28 26 31 34 36 27 26 37 37 38 39 34 35 34 34 34 34
44 44 44 44 44 45 45 39 39 37 35 27 26 30 28 27 27 34 38 36 39 37 38 33 31 29 33 30 30 30 36 36 34 35 36 37 38 38 38 34 33 33 33 33
44 44 44 44 43 44 45 41 40 38 29 26 26 27 28 30 28 27 35 36 36 36 33 31 30 35 34 32 32 31 32 32 31 29 33 35 34 34 34 33 32 31 30 30
43 44 44 43 42 43 37 32 40 39 34 33 28 35 34 28 31 30 32 37 37 36 34 32 35 38 35 31 29 31 31 28 30 31 36 34 32 32 30 30 31 29 28 27
43 44 44 43 42 40 36 33 37 41 39 33 28 26 32 32 33 33 34 36 37 36 35 34 34 33 34 33 26 29 31 29 28 27 33 29 28 28 28 28 29 28 27 25
44 44 44 42 41 40 38 42 41 40 37 36 28 28 32 34 33 33 37 36 37 36 34 36 33 33 33 24 24 22 26 26 25 27 25 26 26 26 26 26 26 25 25 24
44 44 43 41 38 35 38 42 40 40 37 30 30 26 26 36 35 36 36 36 30 35 32 32 34 27 20 24 24 21 21 21 21 22 23 23 23 24 25 24 23 23 23 23
41 39 35 32 39 43 42 39 35 35 36 35 31 33 30 36 33 33 32 33 31 27 30 36 24 20 25 24 20 19 19 20 20 21 20 21 21 24 23 22 21 21 20 19
39 33 34 40 43 39 36 30 29 30 29 32 31 33 32 37 31 31 33 30 32 27 30 30 23 18 22 21 19 18 20 20 20 21 22 22 24 22 20 19 18 17 17 16
39 38 41 39 37 34 30 28 31 29 27 32 31 33 35 34 36 33 33 29 31 25 33 28 16 18 20 21 18 18 19 18 18 18 18 18 20 20 19 18 18 17 16 16
35 33 32 32 30 27 24 23 27 26 30 32 33 31 32 33 34 32 28 26 25 31 23 15 16 20 19 18 18 17 17 17 16 16 16 16 16 17 15 15 15 15 14 15
28 25 19 23 21 21 23 25 26 28 31 33 31 31 31 34 29 30 23 25 28 25 17 11 16 19 19 19 18 18 18 17 16 16 15 15 14 14 14 15 15 13 13 14
23 23 19 19 24 27 28 29 28 30 32 33 32 31 29 27 25 25 24 21 18 16 12 15 18 18 19 19 19 17 17 16 16 15 14 13 13 13 13 14 14 13 13 12
21 22 23 26 23 22 24 27 27 30 30 33 33 28 24 22 24 20 16 18 12 14 16 18 18 18 18 18 19 19 19 17 16 15 15 14 12 12 12 12 12 12 11 10
21 20 24 24 23 22 24 26 26 30 30 26 24 20 20 22 17 13 15 13 15 17 18 19 18 17 18 19 19 19 18 17 17 17 16 15 15 15 13 11 12 12 11 8
Wind_Speed
20 18 18 15 14 8 4 3 5 6 15 13 5 11 7 6 12 19 9 4 5 10 14 8 8 4 2 4 10 6 8 4 15 24 15 10 11 16 10 5 7 6 1 6
21 20 18 14 12 10 2 4 7 4 5 13 11 6 9 20 22 19 9 8 4 11 11 6 6 11 4 3 3 3 8 3 5 8 5 11 12 18 18 14 2 10 5 3
19 20 18 12 12 12 5 2 5 5 6 4 7 12 13 18 15 18 20 16 18 13 13 11 7 1 4 8 7 4 1 5 6 7 7 3 7 9 25 20 7 8 8 9
18 19 19 14 14 11 6 5 6 5 3 10 11 9 3 11 18 14 14 8 13 15 15 14 12 13 12 8 10 6 3 3 14 15 11 8 1 12 4 17 15 10 2 12
15 18 18 17 16 15 7 3 4 6 9 10 7 10 7 12 14 13 12 17 13 14 18 16 10 7 10 3 6 6 1 5 10 14 15 9 13 17 2 2 5 13 15 15
15 15 18 19 19 18 8 7 8 6 6 7 7 7 10 11 14 13 15 14 10 18 17 4 2 5 5 7 4 5 7 4 6 5 13 20 8 14 17 14 20 15 14 18
17 17 17 19 22 25 8 6 6 4 8 8 9 11 14 15 14 15 11 7 7 4 17 14 2 1 15 13 15 12 7 10 4 10 13 5 5 10 5 4 14 6 17 16
20 18 19 21 24 26 13 10 7 5 9 9 15 16 15 17 16 9 9 10 3 4 3 8 1 4 7 16 23 20 19 13 7 7 6 10 19 5 4 3 9 15 17 12
21 21 21 25 25 28 20 17 11 6 5 12 15 16 13 14 11 5 5 4 7 4 3 3 5 7 8 5 5 27 20 16 13 4 7 7 7 3 10 3 7 11 16 17
23 22 23 22 29 28 20 10 19 9 11 13 10 7 8 6 6 5 9 3 4 6 7 4 7 7 4 6 8 3 20 15 20 17 7 8 8 10 9 10 5 13 17 17
20 21 24 25 26 32 25 19 15 21 8 17 12 10 12 8 9 2 4 4 2 2 4 6 6 3 5 7 14 4 13 14 12 10 6 12 15 8 4 10 16 18 20 19
19 20 22 25 26 30 32 12 22 14 11 4 6 20 20 15 5 3 6 2 2 4 1 2 4 3 5 7 6 7 5 10 8 11 10 11 19 19 20 19 21 19 21 19
18 20 21 25 26 29 33 18 18 14 9 11 18 23 12 12 12 14 4 3 1 2 7 6 4 5 3 3 6 4 3 11 2 2 14 16 21 21 17 20 20 21 20 19
22 20 21 23 26 29 33 17 16 20 5 6 9 14 22 29 23 10 14 10 3 3 0 2 4 4 3 4 6 6 4 2 5 6 14 21 16 13 12 19 20 18 18 20
28 24 22 23 23 26 20 17 18 22 14 8 6 10 15 14 21 21 11 11 5 2 1 3 4 5 5 8 2 7 9 7 5 5 9 15 12 15 14 15 15 16 16 17
29 27 25 24 25 29 10 4 14 24 18 3 4 5 6 15 19 19 13 7 6 4 4 4 4 7 6 4 4 9 16 17 19 5 6 17 16 14 11 10 10 15 16 16
30 30 26 26 29 16 7 8 8 25 14 2 5 6 3 13 9 7 8 6 3 4 3 5 4 5 3 3 4 9 14 14 18 19 7 15 13 10 15 15 13 17 15 14
24 27 25 26 28 13 2 1 30 28 8 5 4 3 5 10 6 5 7 6 4 5 3 3 4 2 5 5 8 10 13 10 16 15 17 14 15 15 14 15 15 14 14 13
22 32 37 15 5 4 6 19 32 7 5 9 5 5 5 8 4 3 3 4 4 3 6 5 2 5 7 6 9 13 14 12 13 13 16 15 15 13 12 13 13 12 12 12
39 16 6 6 10 34 26 7 4 3 2 3 4 3 3 2 4 4 6 4 6 6 7 4 5 5 8 10 12 13 15 16 15 14 15 14 13 12 14 15 14 13 12 13
4 4 4 26 26 5 4 5 5 5 3 6 5 6 3 2 4 4 2 5 6 3 5 7 4 4 6 11 13 14 15 14 15 14 14 15 13 12 13 15 14 14 14 14
9 16 8 3 2 4 5 6 6 5 4 3 6 4 3 3 3 3 4 3 2 2 5 4 4 5 10 13 12 13 13 13 15 15 14 14 16 14 15 15 16 16 15 14
4 7 5 2 2 3 5 7 4 6 3 4 5 6 3 2 3 3 2 4 4 0 4 4 4 9 10 10 9 11 12 12 13 14 14 14 15 15 14 14 14 15 16 14
5 3 5 5 4 5 4 3 5 3 3 7 11 6 2 1 3 2 3 1 1 1 4 3 8 10 9 9 9 10 10 11 12 12 12 14 14 15 16 15 13 14 15 13
6 6 5 5 1 4 2 4 5 5 3 3 8 6 3 3 3 2 3 2 4 5 3 4 9 10 10 9 8 9 10 11 11 11 13 13 14 14 15 14 14 14 13 14
5 8 4 4 9 11 10 9 7 7 4 3 1 4 4 4 3 4 5 3 3 3 6 10 11 11 10 9 9 9 9 10 11 11 11 11 12 13 13 13 13 13 13 14
4 5 8 7 10 10 7 7 6 5 2 4 5 4 2 3 5 3 5 3 8 11 10 10 11 11 10 9 9 9 10 11 11 11 10 11 10 9 10 11 10 10 11 12
Wind_Direction
281 279 278 275 270 268 183 260 240 313 149 184 205 227 223 301 298 317 311 301 308 308 328 334 346 132 89 77 2 10 2 269 258 256 234 211 241 260 196 202 191 211 330 281
275 269 267 265 253 217 164 252 263 299 325 204 227 227 255 260 280 288 296 315 246 292 307 327 323 56 118 118 65 52 350 275 276 309 206 214 227 213 225 226 34 234 257 200
272 265 259 256 232 223 189 313 256 207 156 312 271 222 237 246 263 269 271 285 309 301 275 290 276 157 271 207 180 179 79 260 305 296 285 335 302 268 216 219 206 228 238 287
273 258 253 234 222 200 144 196 265 281 242 209 233 257 269 267 253 255 268 278 282 290 291 284 287 305 289 247 181 179 161 271 310 317 312 165 235 292 269 231 215 213 238 264
268 259 243 229 213 194 185 221 249 303 283 287 317 230 263 263 261 261 291 281 278 280 274 271 283 351 351 1 311 293 190 277 304 299 283 260 230 207 257 352 285 243 260 300
267 248 239 225 207 187 200 189 280 311 275 305 290 249 262 272 255 276 276 278 305 311 317 92 42 353 277 220 283 316 313 298 348 306 343 322 297 218 195 192 207 207 194 226
274 246 232 225 212 194 194 181 199 234 272 274 269 297 294 280 266 267 289 295 173 273 332 310 231 263 271 257 234 233 248 294 271 272 306 267 244 303 191 354 34 260 94 68
270 258 228 213 213 206 202 217 217 210 256 264 281 283 278 285 296 289 295 294 144 23 297 276 261 240 258 248 245 235 216 222 251 256 253 275 300 318 25 5 49 66 83 63
262 253 239 210 209 209 206 213 216 239 271 250 256 282 316 326 328 292 273 24 85 77 81 226 196 231 212 247 253 218 207 205 217 258 240 237 242 351 343 238 101 87 80 68
260 245 235 224 209 204 200 212 210 203 243 261 281 271 326 339 346 289 301 300 48 227 187 170 211 240 271 255 255 165 192 197 221 228 249 284 275 327 341 212 132 79 72 67
257 240 229 225 215 202 195 210 198 205 233 257 274 279 289 313 353 255 345 354 76 123 173 207 216 269 269 271 222 261 178 187 202 212 229 251 326 340 44 116 69 70 62 52
255 244 229 222 218 205 192 206 199 198 219 260 273 255 255 267 224 298 335 289 85 294 297 306 314 275 287 12 306 197 204 189 176 179 208 48 36 52 53 76 79 68 67 54
252 247 240 217 215 206 195 197 176 184 218 259 261 255 258 258 250 185 216 264 108 341 3 355 297 275 335 276 285 114 304 316 173 190 58 71 54 49 60 70 58 67 60 54
252 243 235 228 213 203 202 177 171 168 140 238 270 234 235 239 254 235 195 224 195 157 65 222 260 279 322 285 320 343 338 58 331 82 96 85 64 38 41 50 49 43 60 58
247 236 227 220 205 195 181 163 175 179 166 207 245 248 256 216 210 230 253 192 197 136 74 284 261 258 272 233 122 40 22 354 352 84 342 95 83 51 37 51 40 46 51 49
238 225 214 209 190 174 119 119 195 193 202 3 313 310 261 206 193 201 211 201 179 140 152 248 255 234 258 342 84 24 30 54 46 47 13 93 87 68 50 63 65 69 62 55
219 199 198 191 176 146 163 172 175 172 162 175 293 274 300 159 137 157 174 196 177 147 207 233 247 265 13 18 78 20 11 32 28 12 107 62 59 69 49 52 41 88 80 71
158 169 171 158 138 120 155 146 147 146 128 165 232 236 311 142 143 144 175 161 139 189 215 249 252 198 69 78 56 41 25 14 36 20 46 47 47 47 54 58 55 61 64 74
132 127 123 108 77 118 148 138 145 139 140 174 195 205 223 175 108 100 99 130 176 176 209 220 249 41 55 50 39 37 30 24 11 20 40 38 44 39 53 59 60 72 67 67
113 109 85 112 139 116 116 119 105 179 286 230 218 120 277 195 123 134 136 177 183 192 219 173 82 82 68 55 48 42 30 29 27 35 27 23 32 35 67 66 62 63 62 65
70 113 107 124 145 143 99 117 143 162 203 208 190 177 148 65 135 127 146 182 176 220 188 186 94 92 68 63 56 43 37 40 41 49 51 39 36 55 68 66 66 67 66 68
97 109 101 102 94 77 107 143 153 181 176 79 138 139 113 66 44 110 161 159 179 248 142 113 87 83 64 62 60 50 42 49 51 49 53 51 46 64 70 73 76 74 75 68
57 60 66 38 28 133 164 154 157 127 97 146 148 112 86 99 76 98 132 171 194 145 61 72 70 87 69 57 61 57 51 54 60 56 54 59 60 58 70 77 74 78 75 73
71 74 64 30 52 56 25 44 90 91 72 94 103 93 103 82 72 14 98 348 249 189 103 94 98 88 79 75 70 74 67 74 71 73 70 69 71 68 64 66 71 78 77 76
52 31 63 66 126 64 69 43 77 33 39 63 113 87 86 72 88 37 121 142 73 43 87 96 105 91 80 71 79 83 80 78 81 81 80 79 77 75 72 67 68 72 74 74
54 37 67 78 81 44 38 53 63 18 4 327 42 103 73 49 44 60 21 357 80 87 110 121 112 102 94 86 84 85 98 102 98 94 91 89 89 89 86 78 74 73 74 71
56 44 6 54 74 64 40 20 353 305 2 56 60 67 81 152 83 65 19 59 119 117 98 91 106 114 112 100 88 95 96 95 98 106 111 113 121 117 104 101 103 98 92 87